PDT,Max TemperatureF,Mean TemperatureF,Min TemperatureF,Max Dew PointF,MeanDew PointF,Min DewpointF,Max Humidity, Mean Humidity, Min Humidity, Max Sea Level PressureIn, Mean Sea Level PressureIn, Min Sea Level PressureIn, Max VisibilityMiles, Mean VisibilityMiles, Min VisibilityMiles, Max Wind SpeedMPH, Mean Wind SpeedMPH, Max Gust SpeedMPH,PrecipitationIn, CloudCover, Events, WindDirDegrees
2013-3-1,53,38,23,18,14,9,80,45,16,30.49,30.45,30.40,10,10,7,17,5,21,0.00,0,,68
2013-3-2,59,40,21,21,16,3,74,42,13,30.46,30.35,30.26,10,10,7,17,3,21,0.00,0,,256
2013-3-3,50,40,30,28,22,14,81,50,24,30.25,30.10,30.00,10,10,10,20,8,32,0.00,2,Rain,246
2013-3-4,53,40,26,30,24,12,87,61,21,30.19,30.10,30.00,10,10,10,13,6,23,0.00,1,,316
2013-3-5,51,37,23,34,24,14,81,61,24,30.18,30.11,30.03,10,9,5,15,3,21,0.00,0,,229
2013-3-6,48,38,28,27,20,3,80,55,17,30.06,30.02,29.97,10,10,10,18,8,23,0.00,1,,244
2013-3-7,39,34,28,30,26,19,93,77,60,29.97,29.90,29.80,10,9,2,15,6,20,0.00,3,Snow,244
2013-3-8,30,27,24,27,22,16,93,79,59,29.89,29.76,29.67,10,5,0,16,6,31,0.26,7,Snow,249
2013-3-9,35,30,26,23,21,14,80,63,41,30.23,30.05,29.90,10,10,10,18,7,28,0.00,4,Snow,299
2013-3-10,46,35,24,19,10,1,64,38,16,30.35,30.30,30.25,10,10,10,15,6,23,0.00,0,,75
2013-3-11,57,38,19,19,10,-2,68,42,11,30.34,30.28,30.22,10,10,10,10,2,17,0.00,0,,75
2013-3-12,60,42,24,23,17,10,75,45,15,30.35,30.28,30.24,10,10,10,13,2,17,0.00,0,,64
2013-3-13,64,45,26,23,19,12,80,45,14,30.39,30.36,30.33,10,10,10,13,3,16,0.00,0,,63
2013-3-14,69,48,28,28,22,16,75,46,14,30.39,30.35,30.31,10,10,10,10,2,18,0.00,0,,14
2013-3-15,68,49,30,36,22,9,86,47,11,30.32,30.23,30.15,10,10,10,16,3,20,0.00,0,,249
2013-3-16,60,46,33,28,17,9,70,33,13,30.14,30.10,30.06,10,10,10,16,5,21,0.00,0,,267
2013-3-17,60,46,32,23,9,-20,69,27,4,30.13,30.09,30.04,10,10,7,23,6,33,0.00,0,,264
2013-3-18,59,44,28,23,15,5,64,35,13,30.15,30.12,30.07,10,10,10,12,3,17,0.00,0,,248
2013-3-19,57,46,35,34,23,16,75,43,23,30.23,30.17,30.11,10,10,7,16,5,25,0.00,0,,246
2013-3-20,55,44,33,32,28,16,81,54,22,30.22,30.15,30.06,10,10,10,17,5,28,0.00,0,,241
2013-3-21,60,46,32,30,18,-4,65,38,8,30.06,29.98,29.88,10,10,10,14,7,18,0.00,0,,249
2013-3-22,55,42,30,25,7,-8,60,26,7,30.01,29.95,29.88,10,10,7,12,6,21,0.00,0,,264
2013-3-23,55,39,23,27,10,-4,54,32,12,30.12,30.07,30.00,10,10,10,14,3,20,0.00,0,,246
2013-3-24,57,42,28,21,15,5,64,39,13,30.12,30.09,30.07,10,10,10,10,4,18,0.00,0,,191
2013-3-25,60,43,26,28,16,5,70,39,12,30.12,30.10,30.07,10,10,10,15,3,21,0.00,0,,249
2013-3-26,59,46,32,30,15,0,75,39,10,30.09,30.04,30.01,10,10,7,15,4,20,0.00,0,,249
2013-3-27,51,42,32,32,27,23,81,59,35,30.12,30.05,29.99,10,10,10,21,5,28,0.00,0,,241
2013-3-28,57,44,32,34,28,23,87,59,29,30.21,30.15,30.08,10,10,10,13,5,18,0.00,1,,240
2013-3-29,60,44,28,32,28,16,86,57,23,30.25,30.22,30.20,10,10,7,13,2,18,0.00,1,,323
2013-3-30,59,47,35,32,27,21,81,50,25,30.24,30.21,30.18,10,10,10,13,3,20,0.00,3,,253
2013-3-31,51,42,33,34,30,21,87,63,32,30.18,30.13,30.09,10,10,10,18,6,21,0.00,0,,249